GW4411 Weather Reports


time (UTC)temp
C
wind
direction
speed
KPH
gust
KPH
rain 1hr
cm
rain 24hr
cm
rain mn
cm
humidity
%
barometer
mb
20260505110904 19 0 0.0 0.0 0.00 0.00 0.00 94 1017.2
20260505101804 20 0 0.0 0.0 0.00 0.00 0.00 93 1016.8
20260505100903 20 0 0.0 0.0 0.00 0.00 0.00 92 1016.8
20260505100005 20 0 0.0 0.0 0.00 0.00 0.00 92 1016.7
20260505095404 20 0 0.0 0.0 0.00 0.00 0.00 92 1016.6
20260505094505 20 0 0.0 0.0 0.00 0.00 0.00 92 1016.5
20260505093604 20 0 0.0 0.0 0.00 0.00 0.00 91 1016.6
20260505092704 20 0 0.0 0.0 0.00 0.00 0.00 91 1016.7
20260505091804 20 0 0.0 0.0 0.00 0.00 0.00 91 1016.8
20260505090904 20 0 0.0 0.0 0.00 0.00 0.00 90 1016.5
20260505090224 20 0 0.0 0.0 0.00 0.00 0.00 90 1016.5
20260505085408 21 0 0.0 0.0 0.00 0.00 0.00 90 1016.5
20260505084505 21 23 0.0 1.6 0.00 0.00 0.00 89 1016.4
20260505083610 21 0 0.0 0.0 0.00 0.00 0.00 88 1016.3
20260505082708 21 0 0.0 0.0 0.00 0.00 0.00 88 1015.9
20260505082019 21 0 0.0 0.0 0.00 0.00 0.00 88 1016.0
20260505080904 21 0 0.0 0.0 0.00 0.00 0.00 87 1015.6
20260505080219 21 0 0.0 0.0 0.00 0.00 0.00 86 1015.5
20260505075403 22 0 0.0 0.0 0.00 0.00 0.00 85 1015.4
20260505074506 22 0 0.0 0.0 0.00 0.00 0.00 84 1015.5
20260505073604 22 0 0.0 0.0 0.00 0.00 0.00 84 1015.7
20260505072703 22 55 0.0 1.6 0.00 0.00 0.00 83 1015.5
20260505071805 22 58 0.0 1.6 0.00 0.00 0.00 82 1015.3
20260505070904 22 55 1.6 8.0 0.00 0.00 0.00 81 1015.2
20260505070006 23 43 3.2 6.4 0.00 0.00 0.00 80 1015.1
20260505065404 23 37 3.2 6.4 0.00 0.00 0.00 80 1015.2
20260505064505 23 37 1.6 6.4 0.00 0.00 0.00 79 1015.1
20260505063611 23 38 1.6 8.0 0.00 0.00 0.00 78 1015.0
20260505062918 23 48 1.6 6.4 0.00 0.00 0.00 78 1015.0
20260505062022 23 32 3.2 11.3 0.00 0.00 0.00 78 1015.1
20260505060904 24 28 3.2 6.4 0.00 0.00 0.00 77 1015.0
20260505060007 24 28 3.2 11.3 0.00 0.00 0.00 76 1015.0
20260505055408 24 32 3.2 11.3 0.00 0.00 0.00 76 1014.9
20260505054510 25 33 4.8 8.0 0.00 0.00 0.00 76 1014.7
20260505053604 25 40 1.6 6.4 0.00 0.00 0.00 75 1014.8
20260505052922 25 21 1.6 9.7 0.00 0.00 0.00 76 1014.5
20260505051808 25 24 3.2 8.0 0.00 0.00 0.00 76 1014.7
20260505050903 25 35 4.8 8.0 0.00 0.00 0.00 74 1014.8
20260505040909 26 99 1.6 6.4 0.00 0.00 0.00 70 1014.4
20260505040006 26 56 0.0 3.2 0.00 0.00 0.00 70 1014.3
20260505035405 26 101 1.6 3.2 0.00 0.00 0.00 69 1014.4
20260505034719 27 48 1.6 8.0 0.00 0.00 0.00 68 1014.4
20260505033818 27 341 1.6 8.0 0.00 0.00 0.00 67 1014.3
20260505032703 26 64 3.2 6.4 0.00 0.00 0.00 71 1014.5
20260505031808 26 28 3.2 9.7 0.00 0.00 0.00 69 1014.5
20260505030909 27 59 1.6 6.4 0.00 0.00 0.00 70 1014.4
20260505030005 26 81 3.2 8.0 0.00 0.00 0.00 71 1014.5
20260505025418 27 118 4.8 8.0 0.00 0.00 0.00 69 1014.5
20260505024510 27 75 1.6 6.4 0.00 0.00 0.00 69 1014.6
20260505023604 26 47 0.0 1.6 0.00 0.00 0.00 71 1014.7
20260505022705 26 43 1.6 6.4 0.00 0.00 0.00 72 1014.9
20260505021804 25 176 3.2 8.0 0.00 0.00 0.00 72 1015.0
20260505021124 26 129 3.2 8.0 0.00 0.00 0.00 71 1015.4
20260505020005 26 100 1.6 6.4 0.00 0.00 0.00 72 1015.4
20260505015404 26 55 1.6 8.0 0.00 0.00 0.00 70 1015.4
20260505014505 26 4 3.2 6.4 0.00 0.00 0.00 70 1015.7
20260505013817 26 47 1.6 6.4 0.00 0.00 0.00 70 1015.6
20260505012705 26 38 3.2 6.4 0.00 0.00 0.00 70 1015.9
20260505011804 25 57 1.6 6.4 0.00 0.00 0.00 72 1016.0
20260505010904 26 107 1.6 3.2 0.00 0.00 0.00 72 1016.1
20260505010010 26 235 0.0 1.6 0.00 0.00 0.00 74 1016.4
20260505005404 25 210 1.6 6.4 0.00 0.00 0.00 75 1016.5
20260505004724 25 189 3.2 6.4 0.00 0.00 0.00 74 1016.6
20260505003604 26 172 1.6 8.0 0.00 0.00 0.00 72 1016.6
20260505002706 26 80 1.6 6.4 0.00 0.00 0.00 74 1016.8
20260505001804 25 54 1.6 6.4 0.00 0.00 0.00 74 1016.9
20260505000912 25 271 1.6 8.0 0.00 0.00 0.00 77 1017.0
20260505000006 24 165 1.6 6.4 0.00 0.00 0.00 80 1017.0
20260504235404 24 202 0.0 3.2 0.00 0.00 0.00 80 1017.0
20260504234510 23 167 1.6 6.4 0.00 0.00 0.00 82 1017.1
20260504233819 23 181 3.2 8.0 0.00 0.00 0.00 83 1017.3
20260504232704 23 187 0.0 6.4 0.00 0.00 0.00 84 1017.1
20260504231818 23 207 1.6 8.0 0.00 0.03 0.00 83 1017.3
20260504230904 23 181 0.0 6.4 0.00 0.03 0.00 85 1017.3
20260504230011 23 161 1.6 6.4 0.00 0.03 0.00 88 1017.2
20260504225404 22 149 1.6 6.4 0.00 0.03 0.00 92 1017.3
20260504224505 21 204 1.6 8.0 0.00 0.03 0.00 97 1017.2
20260504223608 20 207 1.6 9.7 0.00 0.03 0.00 98 1017.3
20260504222708 20 207 1.6 8.0 0.00 0.03 0.00 98 1017.3
20260504222024 20 206 1.6 6.4 0.00 0.03 0.00 98 1017.2
20260504220903 20 214 0.0 3.2 0.00 0.03 0.00 98 1017.2
20260504220005 19 233 0.0 1.6 0.00 0.03 0.00 98 1017.2
20260504215619 19 246 0.0 1.6 0.00 0.03 0.00 98 1017.2
20260504214733 18 257 1.6 3.2 0.00 0.03 0.00 98 1017.1
20260504213608 18 262 0.0 1.6 0.00 0.03 0.00 98 1017.2
20260504212711 17 0 0.0 0.0 0.00 0.03 0.00 98 1017.1
20260504211804 17 0 0.0 0.0 0.00 0.05 0.00 98 1017.1
20260504210904 16 0 0.0 0.0 0.00 0.10 0.00 98 1017.0
20260504210006 16 0 0.0 0.0 0.00 0.15 0.00 97 1016.9
20260504204514 16 0 0.0 0.0 0.00 0.15 0.00 97 1016.6
20260504203817 16 0 0.0 0.0 0.00 0.15 0.00 97 1016.6
20260504202920 16 265 0.0 3.2 0.00 0.15 0.00 97 1016.6
20260504201812 16 265 0.0 1.6 0.00 0.15 0.00 97 1016.6
20260504200909 16 0 0.0 0.0 0.00 0.15 0.00 97 1016.5
20260504200005 16 0 0.0 0.0 0.00 0.15 0.00 97 1016.3
20260504195409 16 0 0.0 0.0 0.00 0.15 0.00 97 1016.3
20260504194505 16 0 0.0 0.0 0.00 0.15 0.00 97 1016.1
20260504193823 16 0 0.0 0.0 0.00 0.15 0.00 97 1016.1
20260504192704 16 0 0.0 0.0 0.00 0.15 0.00 97 1016.0
20260504191806 16 0 0.0 0.0 0.00 0.15 0.00 97 1015.9
20260504191117 16 0 0.0 0.0 0.00 0.15 0.00 97 1015.9
20260504190006 16 264 0.0 1.6 0.00 0.15 0.00 97 1015.9
20260504185404 16 0 0.0 0.0 0.00 0.15 0.00 97 1015.8
20260504184511 16 264 0.0 1.6 0.00 0.15 0.00 97 1015.9
20260504183609 16 264 0.0 1.6 0.00 0.15 0.00 97 1015.8
20260504182704 16 0 0.0 0.0 0.00 0.15 0.00 97 1015.8
20260504181803 16 0 0.0 0.0 0.00 0.15 0.00 97 1015.6
20260504180909 16 0 0.0 0.0 0.00 0.15 0.00 97 1015.5
20260504180005 17 0 0.0 0.0 0.00 0.15 0.00 97 1015.5
20260504175404 16 0 0.0 0.0 0.00 0.15 0.00 97 1015.5
20260504174505 17 0 0.0 0.0 0.00 0.15 0.00 97 1015.5
20260504173603 17 0 0.0 0.0 0.00 0.15 0.00 96 1015.6
20260504172704 17 0 0.0 0.0 0.00 0.15 0.00 97 1015.7
20260504171818 17 0 0.0 0.0 0.00 0.15 0.00 97 1015.7
20260504170903 17 0 0.0 0.0 0.00 0.15 0.00 97 1015.6
20260504151118 17 0 0.0 0.0 0.00 0.15 0.00 96 1016.2
20260504140904 17 0 0.0 0.0 0.00 0.15 0.00 96 1016.7
20260504140220 18 0 0.0 0.0 0.00 0.15 0.00 96 1016.7